Location: Utrecht
(52.0907°N, 5.1214°E)
Time: 10:56:54
(UTC+02:00)

MOZHAYETS 4 - Pass Details

Date: 08 July 2022
Orbit: 660 x 679 km, 98.2° (Epoch: 09 August)

Event Time Altitude Azimuth Distance (km) Brightness Sun altitude
Rises 01:58:09 0° 106° (ESE) 3,020 11.0 -15.4°
Reaches altitude 10° 02:01:29 10° 80° (E) 2,106 10.5 -15.3°
Maximum altitude 02:03:38 13° 52° (NE) 1,893 10.6 -15.3°
Drops below altitude 10° 02:05:46 10° 24° (NNE) 2,107 11.5 -15.3°
Sets 02:09:06 0° 358° (N) 3,021 12.9 -15.2°
